Forside
METAR-TAF:

METAR-TAF

Lufthavne :

Munising, Michigan, USA

Breddekreds: 46-24N, længdekreds: 086-39W, højde: 187 m

Aktuelle vejr

Denne rapport blev lavet for 44 minutter siden, kl. 14:56 UTC
Vind 5 kt fra nordøst
Temperatur 2°C
Fugtighed 93%
Tryk 1005 hPa

METAR: KP53 081456Z AUTO 05005KT 02/01 A2968 RMK AO1 SLP058 T00220011 58004

Tid: 11:40 (15:40 UTC)


TAF: fraværende

Vejrobservationer og prognoser fra mere end 4000 lufthavne (METAR og TAF).

De gule og røde prikker repræsenterer de meteorologiske stationer.

Flyt musen over at se navnet på stationen.

Så klik over at se vejr observationer og prognoser.

At skifte det kort: Klik på de grønne knapper med et sort kors for at zoome ind; på den grønne knap med en bindestreg for at zoome ud; eller på de grønne pile for tilstødende kort.


METAR-TAF: